Location: Alafon
(8.4500°N, 4.2333°E)
Time: 08:43:00
(UTC+00:00)

SR - Pass Details

Date: 03 August 2021
Orbit: 581 x 874 km, 66.7° (Epoch: 19 September)

Event Time Altitude Azimuth Distance (km) Brightness Sun altitude
Rises 14:18:55 0° 12° (NNE) 2,870 ? 52.5°
Reaches altitude 10° 14:22:43 10° 45° (NE) 1,922 ? 51.6°
Maximum altitude 14:24:13 12° 66° (ENE) 1,806 ? 51.3°
Drops below altitude 10° 14:25:42 10° 87° (E) 1,900 ? 50.9°
Sets 14:29:22 0° 120° (ESE) 2,788 ? 50.1°
